Location: Kumla
(59.1265°N, 15.1401°E)
Time: 07:19:45
(UTC+01:00)

Vanguard 2 Rocket - Pass Details

Date: 06 December 2023
Orbit: 554 x 3309 km, 32.9° (Epoch: 26 February)

Event Time Altitude Azimuth Distance (km) Brightness Sun altitude
Rises 15:28:18 0° 231° (SW) 6,659 14.8 -3.0°
Reaches altitude 10° 15:33:26 10° 221° (SW) 5,925 12.9 -3.5°
Maximum altitude 15:47:56 28° 172° (S) 4,890 11.0 -5.0°
Drops below altitude 10° 16:02:22 10° 124° (SE) 5,913 10.8 -6.5°
Sets 16:07:29 0° 114° (ESE) 6,645 11.0 -7.0°
